TimeICT,TemperatureF,Dew PointF,Humidity,Sea Level PressureIn,VisibilityMPH,Wind Direction,Wind SpeedMPH,Gust SpeedMPH,PrecipitationIn,Events,Conditions,WindDirDegrees,DateUTC
12:00 AM,77.0,69.8,78,29.89,5.6,NNE,4.6,-,N/A,,Unknown,20,2013-11-04 17:00:00
12:30 AM,77.0,69.8,78,29.89,5.6,NNE,4.6,-,N/A,,Unknown,20,2013-11-04 17:30:00
1:00 AM,77.0,69.8,78,29.89,5.6,North,4.6,-,N/A,,Unknown,360,2013-11-04 18:00:00
7:00 AM,75.2,68.0,78,29.86,5.6,North,4.6,-,N/A,,Unknown,360,2013-11-05 00:00:00
7:30 AM,77.0,68.0,74,29.89,-9999.0,North,3.5,-,N/A,,Clear,10,2013-11-05 00:30:00
8:00 AM,78.8,68.0,69,29.89,-9999.0,North,6.9,-,N/A,,Clear,360,2013-11-05 01:00:00
8:30 AM,78.8,68.0,69,29.89,-9999.0,North,3.5,-,N/A,,Clear,10,2013-11-05 01:30:00
9:00 AM,82.4,68.0,62,29.92,6.2,North,4.6,-,N/A,,Scattered Clouds,10,2013-11-05 02:00:00
9:30 AM,82.4,69.8,66,29.92,6.2,North,3.5,-,N/A,,Mostly Cloudy,10,2013-11-05 02:30:00
10:00 AM,84.2,69.8,62,29.92,6.2,Variable,3.5,-,N/A,,Scattered Clouds,0,2013-11-05 03:00:00
10:30 AM,84.2,69.8,62,29.89,6.2,North,8.1,-,N/A,,Scattered Clouds,360,2013-11-05 03:30:00
11:00 AM,84.2,69.8,62,29.89,6.2,North,9.2,-,N/A,,Scattered Clouds,360,2013-11-05 04:00:00
11:30 AM,86.0,69.8,58,29.86,6.2,North,8.1,-,N/A,,Scattered Clouds,10,2013-11-05 04:30:00
12:00 PM,86.0,71.6,62,29.86,6.2,NNW,5.8,-,N/A,,Scattered Clouds,340,2013-11-05 05:00:00
12:30 PM,86.0,71.6,62,29.83,6.2,NW,5.8,-,N/A,,Scattered Clouds,320,2013-11-05 05:30:00
1:00 PM,87.8,71.6,58,29.83,6.2,WNW,9.2,-,N/A,,Scattered Clouds,290,2013-11-05 06:00:00
1:30 PM,87.8,71.6,58,29.80,6.2,NNW,8.1,-,N/A,,Mostly Cloudy,330,2013-11-05 06:30:00
2:00 PM,89.6,71.6,55,29.77,6.2,North,8.1,-,N/A,,Scattered Clouds,350,2013-11-05 07:00:00
2:30 PM,87.8,71.6,58,29.77,6.2,NNE,8.1,-,N/A,,Mostly Cloudy,30,2013-11-05 07:30:00
3:00 PM,87.8,71.6,58,29.77,6.2,NNE,10.4,-,N/A,,Mostly Cloudy,30,2013-11-05 08:00:00
3:30 PM,86.0,73.4,66,29.77,6.2,ESE,12.7,-,N/A,,Mostly Cloudy,110,2013-11-05 08:30:00
4:00 PM,84.2,73.4,70,29.77,6.2,ESE,11.5,-,N/A,,Mostly Cloudy,120,2013-11-05 09:00:00
4:30 PM,86.0,75.2,70,29.77,6.2,ESE,6.9,-,N/A,,Mostly Cloudy,110,2013-11-05 09:30:00
5:00 PM,84.2,75.2,74,29.80,6.2,East,6.9,-,N/A,,Mostly Cloudy,100,2013-11-05 10:00:00
5:30 PM,84.2,73.4,70,29.80,6.2,North,2.3,-,N/A,,Mostly Cloudy,360,2013-11-05 10:30:00
6:00 PM,78.8,75.2,89,29.80,5.0,ENE,8.1,-,N/A,Rain,Light Rain,60,2013-11-05 11:00:00
6:30 PM,78.8,75.2,89,29.80,5.0,East,4.6,-,N/A,,Mostly Cloudy,80,2013-11-05 11:30:00
7:00 PM,78.8,75.2,89,29.83,5.0,NE,4.6,-,N/A,,Mostly Cloudy,40,2013-11-05 12:00:00
8:00 PM,78.8,75.2,89,29.86,5.0,NNE,4.6,-,N/A,,Mostly Cloudy,30,2013-11-05 13:00:00
8:30 PM,78.8,75.2,89,29.86,5.0,North,4.6,-,N/A,,Mostly Cloudy,10,2013-11-05 13:30:00
9:00 PM,78.8,75.2,89,29.86,5.0,NNE,4.6,-,N/A,,Mostly Cloudy,30,2013-11-05 14:00:00
9:30 PM,78.8,75.2,89,29.86,5.0,NE,4.6,-,N/A,,Mostly Cloudy,50,2013-11-05 14:30:00
10:30 PM,78.8,75.2,89,29.86,5.6,NE,4.6,-,N/A,,Mostly Cloudy,50,2013-11-05 15:30:00
11:00 PM,78.8,75.2,89,29.86,5.6,NNE,4.6,-,N/A,,Mostly Cloudy,30,2013-11-05 16:00:00
11:30 PM,78.8,75.2,89,29.86,5.6,NNE,4.6,-,N/A,,Mostly Cloudy,30,2013-11-05 16:30:00